When you browse on this site, cookies collect data to enhance your experience and personalize the content and advertising you see.
Visit our Privacy Policy to learn more. By continuing to use the site, you agree to this use of cookies and data.
  • In Lithuania
  • List of Countries
  • For 7 days
  • Water Temperature
  • Satellite Maps
  • Weather Map
  • Weather Widgets
  • user-avatar
    Login

    Hourly Weather Leninskiy

    Today, 18 April, Thursday

    Time Temperature Precipitation Wind Pressure Humidity
    00:00 +9°C° 0 mm 2 mps 759 mmHg 74%
    01:00 +8°C° 0 mm 2 mps 759 mmHg 77%
    02:00 +8°C° 0 mm 2 mps 759 mmHg 76%
    03:00 +7°C° 0 mm 2 mps 759 mmHg 77%
    04:00 +8°C° 0 mm 1 mps 759 mmHg 79%
    05:00 +7°C° 0 mm 1 mps 760 mmHg 80%
    06:00 +9°C° 0 mm 1 mps 760 mmHg 75%
    07:00 +11°C° 0 mm 1 mps 760 mmHg 69%
    08:00 +13°C° 0 mm 1 mps 761 mmHg 62%
    09:00 +14°C° 0 mm 1 mps 761 mmHg 56%
    10:00 +16°C° 0 mm 2 mps 761 mmHg 50%
    11:00 +17°C° 0 mm 2 mps 761 mmHg 44%
    12:00 +18°C° 0 mm 3 mps 760 mmHg 42%
    13:00 +18°C° 0 mm 3 mps 760 mmHg 40%
    14:00 +19°C° 0 mm 3 mps 760 mmHg 37%
    15:00 +19°C° 0 mm 3 mps 760 mmHg 39%
    16:00 +19°C° 0 mm 4 mps 759 mmHg 41%
    17:00 +18°C° 0 mm 4 mps 759 mmHg 42%
    18:00 +17°C° 0 mm 3 mps 759 mmHg 48%
    19:00 +14°C° 0 mm 3 mps 759 mmHg 53%
    20:00 +12°C° 0 mm 3 mps 759 mmHg 58%
    21:00 +12°C° 0 mm 3 mps 759 mmHg 60%
    22:00 +11°C° 0 mm 3 mps 759 mmHg 61%
    23:00 +10°C° 0 mm 3 mps 759 mmHg 63%

    Tomorrow, 19 April, Friday

    Time Temperature Precipitation Wind Pressure Humidity
    00:00 +9°C° 0 mm 3 mps 760 mmHg 66%
    01:00 +9°C° 0 mm 3 mps 760 mmHg 69%
    02:00 +8°C° 0 mm 3 mps 760 mmHg 72%
    03:00 +7°C° 0 mm 3 mps 760 mmHg 73%
    04:00 +7°C° 0 mm 3 mps 760 mmHg 75%
    05:00 +5°C° 0 mm 3 mps 760 mmHg 77%
    06:00 +7°C° 0 mm 3 mps 761 mmHg 71%
    07:00 +8°C° 0 mm 3 mps 761 mmHg 66%
    08:00 +10°C° 0 mm 4 mps 761 mmHg 60%
    09:00 +11°C° 0 mm 4 mps 761 mmHg 54%
    10:00 +12°C° 0 mm 4 mps 761 mmHg 49%
    11:00 +13°C° 0 mm 5 mps 761 mmHg 43%
    12:00 +14°C° 0 mm 5 mps 761 mmHg 41%
    13:00 +15°C° 0 mm 4 mps 761 mmHg 40%
    14:00 +15°C° 0 mm 4 mps 761 mmHg 38%
    15:00 +15°C° 0 mm 4 mps 761 mmHg 39%
    16:00 +15°C° 0 mm 4 mps 760 mmHg 39%
    17:00 +15°C° 0 mm 4 mps 760 mmHg 40%
    18:00 +13°C° 0 mm 3 mps 760 mmHg 45%
    19:00 +13°C° 0 mm 2 mps 760 mmHg 49%
    20:00 +10°C° 0 mm 2 mps 760 mmHg 54%
    21:00 +10°C° 0 mm 1 mps 760 mmHg 56%
    22:00 +10°C° 0 mm 1 mps 761 mmHg 57%
    23:00 +9°C° 0 mm 1 mps 761 mmHg 59%

    Day after tomorrow, 20 April, Saturday

    Time Temperature Precipitation Wind Pressure Humidity
    00:00 +9°C° 0 mm 1 mps 760 mmHg 60%
    01:00 +8°C° 0 mm 1 mps 760 mmHg 61%
    02:00 +7°C° 0 mm 0 mps 760 mmHg 62%
    03:00 +7°C° 0 mm 1 mps 760 mmHg 62%
    04:00 +7°C° 0 mm 1 mps 760 mmHg 63%
    05:00 +7°C° 0 mm 1 mps 760 mmHg 64%
    06:00 +7°C° 0 mm 2 mps 760 mmHg 62%
    07:00 +9°C° 0 mm 2 mps 759 mmHg 59%
    08:00 +10°C° 0 mm 2 mps 759 mmHg 57%
    09:00 +13°C° 0 mm 2 mps 759 mmHg 52%
    10:00 +13°C° 0 mm 3 mps 759 mmHg 47%
    11:00 +16°C° 0 mm 3 mps 759 mmHg 42%
    12:00 +16°C° 0 mm 3 mps 758 mmHg 40%
    13:00 +17°C° 0 mm 3 mps 758 mmHg 38%
    14:00 +17°C° 0 mm 3 mps 757 mmHg 35%
    15:00 +17°C° 0 mm 3 mps 757 mmHg 36%
    16:00 +17°C° 0 mm 3 mps 757 mmHg 37%
    17:00 +16°C° 0 mm 3 mps 756 mmHg 37%
    18:00 +14°C° 0 mm 3 mps 756 mmHg 42%
    19:00 +14°C° 0 mm 2 mps 756 mmHg 46%
    20:00 +13°C° 0 mm 2 mps 756 mmHg 51%
    21:00 +12°C° 0 mm 2 mps 756 mmHg 54%
    22:00 +11°C° 0 mm 1 mps 756 mmHg 58%
    23:00 +11°C° 0 mm 1 mps 755 mmHg 62%

    21 April, Sunday

    Time Temperature Precipitation Wind Pressure Humidity
    00:00 +10°C° 0 mm 1 mps 755 mmHg 66%
    01:00 +9°C° 0 mm 1 mps 755 mmHg 70%
    02:00 +9°C° 0 mm 1 mps 755 mmHg 74%
    03:00 +9°C° 0 mm 1 mps 754 mmHg 73%
    04:00 +9°C° 0 mm 1 mps 754 mmHg 73%
    05:00 +9°C° 0 mm 1 mps 754 mmHg 72%
    06:00 +9°C° 0.7 mm 1 mps 754 mmHg 77%
    07:00 +8°C° 0.7 mm 2 mps 754 mmHg 82%
    08:00 +8°C° 0.7 mm 2 mps 753 mmHg 87%
    09:00 +8°C° 1.9 mm 2 mps 753 mmHg 87%
    10:00 +9°C° 1.9 mm 1 mps 753 mmHg 87%
    11:00 +9°C° 1.9 mm 1 mps 753 mmHg 87%
    12:00 +10°C° 0.2 mm 1 mps 753 mmHg 80%
    13:00 +12°C° 0.2 mm 1 mps 752 mmHg 73%
    14:00 +14°C° 0.2 mm 2 mps 752 mmHg 66%
    15:00 +13°C° 0.5 mm 2 mps 752 mmHg 68%
    16:00 +13°C° 0.5 mm 2 mps 752 mmHg 70%
    17:00 +13°C° 0.5 mm 2 mps 752 mmHg 72%
    18:00 +12°C° 0.5 mm 2 mps 752 mmHg 77%
    19:00 +11°C° 0.5 mm 1 mps 752 mmHg 82%
    20:00 +10°C° 0.5 mm 1 mps 752 mmHg 87%
    21:00 +10°C° 0.7 mm 1 mps 752 mmHg 88%
    22:00 +10°C° 0.7 mm 1 mps 752 mmHg 90%
    23:00 +10°C° 0.7 mm 1 mps 752 mmHg 92%

    22 April, Monday

    Time Temperature Precipitation Wind Pressure Humidity
    00:00 +9°C° 0.3 mm 1 mps 752 mmHg 93%
    01:00 +9°C° 0.3 mm 1 mps 752 mmHg 93%
    02:00 +7°C° 0.3 mm 2 mps 752 mmHg 94%
    03:00 +7°C° 0 mm 2 mps 752 mmHg 94%
    04:00 +5°C° 0 mm 3 mps 752 mmHg 95%
    05:00 +5°C° 0 mm 3 mps 753 mmHg 95%
    06:00 +7°C° 0 mm 3 mps 753 mmHg 92%
    07:00 +7°C° 0 mm 4 mps 753 mmHg 89%
    08:00 +8°C° 0 mm 5 mps 754 mmHg 86%
    09:00 +9°C° 0.1 mm 5 mps 754 mmHg 82%
    10:00 +10°C° 0.1 mm 5 mps 754 mmHg 79%
    11:00 +11°C° 0.1 mm 6 mps 754 mmHg 76%
    12:00 +13°C° 0.1 mm 6 mps 754 mmHg 68%
    13:00 +14°C° 0.1 mm 6 mps 754 mmHg 61%
    14:00 +15°C° 0.1 mm 6 mps 754 mmHg 53%
    15:00 +15°C° 0.3 mm 6 mps 754 mmHg 54%
    16:00 +15°C° 0.3 mm 6 mps 754 mmHg 55%
    17:00 +15°C° 0.3 mm 6 mps 754 mmHg 56%
    18:00 +13°C° 0 mm 6 mps 755 mmHg 58%
    19:00 +12°C° 0 mm 5 mps 755 mmHg 60%
    20:00 +10°C° 0 mm 5 mps 755 mmHg 62%
    21:00 +10°C° 0 mm 5 mps 756 mmHg 62%
    22:00 +9°C° 0 mm 6 mps 756 mmHg 63%
    23:00 +9°C° 0 mm 6 mps 756 mmHg 64%

    23 April, Tuesday

    Time Temperature Precipitation Wind Pressure Humidity
    00:00 +8°C° 0 mm 6 mps 756 mmHg 64%
    01:00 +8°C° 0 mm 6 mps 756 mmHg 64%
    02:00 +7°C° 0 mm 6 mps 756 mmHg 64%
    03:00 +7°C° 0 mm 6 mps 757 mmHg 63%
    04:00 +7°C° 0 mm 6 mps 757 mmHg 62%
    05:00 +6°C° 0 mm 7 mps 757 mmHg 61%
    06:00 +8°C° 0 mm 7 mps 757 mmHg 60%
    07:00 +7°C° 0 mm 8 mps 757 mmHg 58%
    08:00 +9°C° 0 mm 8 mps 757 mmHg 57%
    09:00 +10°C° 0 mm 9 mps 757 mmHg 53%
    10:00 +12°C° 0 mm 9 mps 757 mmHg 50%
    11:00 +13°C° 0 mm 9 mps 757 mmHg 46%
    12:00 +15°C° 0 mm 9 mps 757 mmHg 45%
    13:00 +15°C° 0 mm 9 mps 757 mmHg 44%
    14:00 +16°C° 0 mm 9 mps 756 mmHg 43%
    15:00 +16°C° 0 mm 8 mps 756 mmHg 44%
    16:00 +16°C° 0 mm 8 mps 756 mmHg 46%
    17:00 +16°C° 0 mm 8 mps 755 mmHg 48%
    18:00 +14°C° 0 mm 7 mps 755 mmHg 51%
    19:00 +13°C° 0 mm 6 mps 755 mmHg 54%
    20:00 +11°C° 0 mm 6 mps 755 mmHg 58%
    21:00 +10°C° 0 mm 6 mps 756 mmHg 58%
    22:00 +10°C° 0 mm 6 mps 756 mmHg 58%
    23:00 +9°C° 0 mm 7 mps 756 mmHg 59%
    Show more